Location: ???????
(38.3360°N, 23.6977°E)
Time: 22:31:17
(UTC+00:00)

SPOT 1/Viking Rocket - Pass Details

Date: 17 November 2025
Orbit: 773 x 789 km, 98.2° (Epoch: 09 December)

Event Time Altitude Azimuth Distance (km) Brightness Sun altitude
Rises 17:07:39 0° 179° (S) 3,248 6.8 -22.8°
Reaches altitude 10° 17:10:00 10° 184° (S) 2,327 6.1 -23.2°
Maximum altitude 17:15:01 52° 260° (W) 965 4.3 -24.2°
Drops below altitude 10° 17:20:05 10° 337° (NNW) 2,352 6.2 -25.2°
Sets 17:22:29 0° 342° (NNW) 3,286 6.9 -25.7°
